{"data":{"norad_id":43873,"intl_designator":"2018-109A","name":"GPS BIII-1  (PRN 04)","alt_names":[],"object_type":"PAYLOAD","status":"ACTIVE","operator":null,"country":"US","launch_date":"2018-12-23","launch_site_code":"AFETR","launch_vehicle":null,"mission":null,"orbit_class":"UNKNOWN","rcs_meters":null,"size_class":null,"mass_kg":null,"dimensions":null,"purposes":["earth_obs","nav"],"wikipedia_slug":null,"has_3d_model":false,"image_url":null,"decayed_at":null,"tle_current":{"epoch":"2026-05-24T14:05:13.628256Z","epoch_age_seconds":124890,"freshness":"FRESH","line1":"1 43873U 18109A   26144.58696329  .00000004  00000+0  00000+0 0  9991","line2":"2 43873  55.6688  93.1171 0038010 198.5017 164.9098  2.00560610 54602","mean_motion":2.0056061,"eccentricity":0.003801,"inclination_deg":55.6688,"raan_deg":93.1171,"arg_perigee_deg":198.5017,"mean_anomaly_deg":164.9098,"bstar":0,"rev_number":5460,"period_min":717.98744529148,"perigee_km":20081.518261451,"apogee_km":20283.432035002,"semimajor_km":26560.612148227,"source":"CELESTRAK","updated_at":"2026-05-25T13:38:23.766015Z"}}}